PBD419 URWW-URSS

Flight info

Callsign PBD419
Flight time N/A
Altitude 31000
Route MOLED DCT LIDUS/K0833F340 G242 ZG/K0830F310 DCT ITAKA/K0822F300 DCT OBBUD DCT AMKOL DCT GOTIK DCT MEMZA DCT VENFO DCT BINOL BINOL1K
Aircraft B738/M-SDE2E3FGHIRWXY/LB1

Departure

Time N/A
Airport Volgograd International Airport (URWW)

Arrival

Time 2026-05-07 20:43
Airport Sochi International Airport (URSS)
Time Latitude Longitude Altitude Speed Heading
2026-05-07 19:28 43.65129 43.50864 34131 ft 482 kts 272°
2026-05-07 19:28 43.65244 43.46202 34129 ft 482 kts 272°
2026-05-07 19:28 43.65467 43.36942 34127 ft 482 kts 272°
2026-05-07 19:29 43.65684 43.27686 34153 ft 482 kts 272°
2026-05-07 19:29 43.65895 43.18415 34161 ft 483 kts 272°
2026-05-07 19:30 43.66097 43.09141 34160 ft 483 kts 272°
2026-05-07 19:30 43.66292 42.99866 34188 ft 483 kts 272°
2026-05-07 19:31 43.66479 42.90590 34185 ft 483 kts 272°
2026-05-07 19:31 43.66659 42.81305 34196 ft 484 kts 273°
2026-05-07 19:32 43.66832 42.72007 34201 ft 485 kts 272°
2026-05-07 19:32 43.66998 42.62695 34208 ft 485 kts 272°
2026-05-07 19:33 43.67156 42.53384 34212 ft 485 kts 272°
2026-05-07 19:33 43.67307 42.44055 34212 ft 485 kts 272°
2026-05-07 19:34 43.67450 42.34727 34216 ft 486 kts 273°
2026-05-07 19:34 43.67585 42.25375 34222 ft 487 kts 273°
2026-05-07 19:35 43.67714 42.16025 34227 ft 488 kts 272°
2026-05-07 19:35 43.67834 42.06651 34223 ft 488 kts 272°
2026-05-07 19:36 43.67948 41.97266 34221 ft 488 kts 272°
2026-05-07 19:36 43.68052 41.87900 34222 ft 487 kts 273°
2026-05-07 19:37 43.68151 41.78535 34232 ft 488 kts 273°
2026-05-07 19:37 43.68241 41.69150 34229 ft 489 kts 272°
2026-05-07 19:38 43.68324 41.59753 34229 ft 489 kts 272°
2026-05-07 19:38 43.68398 41.50416 34022 ft 492 kts 272°
2026-05-07 19:39 43.68434 41.45662 33629 ft 493 kts 272°
2026-05-07 19:39 43.68466 41.40953 33360 ft 484 kts 273°
2026-05-07 19:39 43.68510 41.33385 33140 ft 463 kts 272°
2026-05-07 19:40 43.68544 41.27496 32739 ft 455 kts 272°
2026-05-07 19:40 43.68560 41.24607 32429 ft 453 kts 272°
2026-05-07 19:40 43.68584 41.20259 31892 ft 453 kts 272°
2026-05-07 19:40 43.68606 41.15917 31408 ft 452 kts 272°
2026-05-07 19:41 43.68626 41.11587 30975 ft 449 kts 272°
2026-05-07 19:41 43.68643 41.07287 30574 ft 447 kts 272°
2026-05-07 19:41 43.68659 41.03005 30142 ft 444 kts 272°
2026-05-07 19:41 43.68673 40.98757 29687 ft 441 kts 272°
2026-05-07 19:42 43.68686 40.94547 29304 ft 435 kts 272°
2026-05-07 19:42 43.68696 40.90387 28890 ft 431 kts 272°
2026-05-07 19:42 43.68708 40.86255 28417 ft 429 kts 272°
2026-05-07 19:42 43.68723 40.82155 27978 ft 425 kts 272°
2026-05-07 19:43 43.68740 40.78089 27603 ft 421 kts 272°
2026-05-07 19:43 43.68755 40.74048 27220 ft 418 kts 272°
2026-05-07 19:43 43.68768 40.70050 26833 ft 415 kts 272°
2026-05-07 19:43 43.68779 40.66084 26437 ft 411 kts 272°
2026-05-07 19:44 43.68793 40.62154 26066 ft 408 kts 272°
2026-05-07 19:44 43.68802 40.58248 25698 ft 405 kts 272°
2026-05-07 19:44 43.68809 40.54372 25321 ft 402 kts 272°
2026-05-07 19:44 43.68814 40.50527 24964 ft 398 kts 272°
2026-05-07 19:45 43.68818 40.46713 24618 ft 395 kts 272°
2026-05-07 19:45 43.68821 40.42932 24259 ft 392 kts 271°
2026-05-07 19:45 43.68823 40.39174 23914 ft 389 kts 271°
2026-05-07 19:45 43.68824 40.35448 23494 ft 387 kts 271°
2026-05-07 19:46 43.68823 40.31745 23064 ft 384 kts 271°
2026-05-07 19:46 43.68822 40.28057 22627 ft 381 kts 271°
2026-05-07 19:46 43.68821 40.24405 22220 ft 379 kts 271°
2026-05-07 19:46 43.68817 40.20775 21813 ft 376 kts 271°
2026-05-07 19:47 43.68809 40.17189 21372 ft 371 kts 270°
2026-05-07 19:47 43.68388 40.13746 20740 ft 372 kts 249°
2026-05-07 19:47 43.67014 40.10683 20242 ft 372 kts 229°
2026-05-07 19:47 43.65003 40.08411 19682 ft 375 kts 209°
2026-05-07 19:48 43.62650 40.06838 19221 ft 377 kts 203°
2026-05-07 19:48 43.60248 40.05394 18807 ft 376 kts 203°
2026-05-07 19:48 43.57863 40.03949 18364 ft 371 kts 203°
2026-05-07 19:48 43.55530 40.02512 17911 ft 363 kts 204°
2026-05-07 19:49 43.53280 40.01110 17519 ft 354 kts 204°
2026-05-07 19:49 43.51053 39.99716 17123 ft 349 kts 204°
2026-05-07 19:49 43.48850 39.98338 16749 ft 345 kts 204°
2026-05-07 19:49 43.46676 39.96981 16371 ft 343 kts 204°
2026-05-07 19:50 43.44477 39.95690 15964 ft 345 kts 200°
2026-05-07 19:50 43.42173 39.94581 15535 ft 346 kts 198°
2026-05-07 19:50 43.39887 39.93563 15094 ft 344 kts 197°
2026-05-07 19:50 43.37610 39.92565 14605 ft 343 kts 197°
2026-05-07 19:51 43.35332 39.91559 13986 ft 344 kts 197°
2026-05-07 19:51 43.33060 39.90546 13455 ft 340 kts 198°
2026-05-07 19:51 43.30866 39.89559 13071 ft 332 kts 198°
2026-05-07 19:51 43.28690 39.88577 12712 ft 324 kts 198°
2026-05-07 19:52 43.26577 39.87620 12370 ft 316 kts 198°
2026-05-07 19:52 43.24510 39.86683 12050 ft 309 kts 198°
2026-05-07 19:52 43.22493 39.85769 11730 ft 302 kts 198°
2026-05-07 19:52 43.20512 39.84872 11434 ft 298 kts 198°
2026-05-07 19:53 43.18549 39.83983 11136 ft 297 kts 198°
2026-05-07 19:53 43.16578 39.83091 10843 ft 302 kts 198°
2026-05-07 19:53 43.14560 39.82179 10713 ft 306 kts 198°
2026-05-07 19:53 43.12567 39.81278 10550 ft 296 kts 198°
2026-05-07 19:54 43.10649 39.80410 10406 ft 283 kts 198°
2026-05-07 19:54 43.08816 39.79583 10281 ft 271 kts 198°
2026-05-07 19:54 43.07065 39.78793 10172 ft 260 kts 197°
2026-05-07 19:54 43.05333 39.78013 10064 ft 265 kts 197°
2026-05-07 19:55 43.03580 39.77243 10007 ft 263 kts 193°
2026-05-07 19:55 43.01794 39.77236 9998 ft 258 kts 161°
2026-05-07 19:55 43.00245 39.78442 10000 ft 259 kts 134°
2026-05-07 19:55 42.99278 39.80484 10007 ft 258 kts 107°
2026-05-07 19:56 42.99104 39.82888 9996 ft 256 kts 80°
2026-05-07 19:56 42.99766 39.85109 9996 ft 255 kts 52°
2026-05-07 19:56 43.01085 39.86699 10004 ft 255 kts 28°
2026-05-07 19:56 43.02730 39.87613 10006 ft 256 kts 19°
2026-05-07 19:57 43.04431 39.88353 9998 ft 257 kts 18°
2026-05-07 19:57 43.06143 39.89093 9997 ft 258 kts 18°
2026-05-07 19:57 43.07852 39.89845 9994 ft 258 kts 19°
2026-05-07 19:57 43.09598 39.90418 9975 ft 260 kts
2026-05-07 19:58 43.11334 39.89858 10004 ft 259 kts 331°
2026-05-07 19:58 43.12680 39.88245 9992 ft 260 kts 303°
2026-05-07 19:58 43.13335 39.85960 9999 ft 261 kts 276°
2026-05-07 19:58 43.13134 39.83516 10001 ft 261 kts 247°
2026-05-07 19:59 43.12108 39.81498 10004 ft 261 kts 219°
2026-05-07 19:59 43.10541 39.80267 10011 ft 261 kts 200°
2026-05-07 19:59 43.08814 39.79472 10005 ft 263 kts 197°
2026-05-07 19:59 43.07057 39.78724 10002 ft 265 kts 197°
2026-05-07 20:00 43.05294 39.77961 9994 ft 266 kts 197°
2026-05-07 20:00 43.03528 39.77210 9989 ft 266 kts 191°
2026-05-07 20:00 43.01712 39.77258 9990 ft 261 kts 160°
2026-05-07 20:00 43.00184 39.78530 9996 ft 258 kts 131°
2026-05-07 20:01 42.99287 39.80614 10002 ft 256 kts 104°
2026-05-07 20:01 42.99195 39.83007 10005 ft 254 kts 78°
2026-05-07 20:01 42.99924 39.85183 9992 ft 255 kts 50°
2026-05-07 20:01 43.01293 39.86696 10002 ft 256 kts 26°
2026-05-07 20:02 43.02958 39.87571 10005 ft 257 kts 19°
2026-05-07 20:02 43.04668 39.88312 9998 ft 259 kts 18°
2026-05-07 20:02 43.06385 39.89055 9996 ft 260 kts 18°
2026-05-07 20:02 43.08108 39.89815 9993 ft 260 kts 19°
2026-05-07 20:03 43.09875 39.90282 9975 ft 261 kts 355°
2026-05-07 20:03 43.11578 39.89514 10000 ft 260 kts 326°
2026-05-07 20:03 43.12807 39.87734 9991 ft 261 kts 298°
2026-05-07 20:03 43.13294 39.85356 10001 ft 261 kts 270°
2026-05-07 20:04 43.12903 39.82955 9998 ft 261 kts 241°
2026-05-07 20:04 43.11720 39.81106 9998 ft 260 kts 213°
2026-05-07 20:04 43.10095 39.80043 10009 ft 261 kts 198°
2026-05-07 20:04 43.08359 39.79276 10004 ft 263 kts 197°
2026-05-07 20:05 43.06603 39.78528 10000 ft 265 kts 197°
2026-05-07 20:05 43.04842 39.77762 9994 ft 266 kts 197°
2026-05-07 20:05 43.03065 39.77084 9981 ft 265 kts 185°
2026-05-07 20:05 43.01283 39.77471 10007 ft 260 kts 153°
2026-05-07 20:06 42.99892 39.78998 9998 ft 258 kts 124°
2026-05-07 20:06 42.99191 39.81215 10006 ft 255 kts 97°
2026-05-07 20:06 42.99314 39.83606 10001 ft 255 kts 71°
2026-05-07 20:06 43.00239 39.85648 9999 ft 255 kts 44°
2026-05-07 20:07 43.01724 39.86955 10006 ft 257 kts 22°
2026-05-07 20:07 43.03414 39.87762 10004 ft 258 kts 18°
2026-05-07 20:07 43.05130 39.88499 9995 ft 259 kts 18°
2026-05-07 20:07 43.06855 39.89248 9994 ft 260 kts 18°
2026-05-07 20:08 43.08579 39.90006 9992 ft 260 kts 17°
2026-05-07 20:08 43.10368 39.90175 9982 ft 260 kts 347°
2026-05-07 20:08 43.11965 39.89105 10000 ft 260 kts 319°
2026-05-07 20:08 43.13024 39.87098 9997 ft 261 kts 290°
2026-05-07 20:09 43.13270 39.84659 10001 ft 261 kts 262°
2026-05-07 20:09 43.12642 39.82360 9996 ft 261 kts 233°
2026-05-07 20:09 43.11292 39.80739 10007 ft 260 kts 206°
2026-05-07 20:10 43.07871 39.79070 10004 ft 263 kts 197°
2026-05-07 20:10 43.06118 39.78320 9866 ft 266 kts 197°
2026-05-07 20:10 43.04356 39.77549 9605 ft 266 kts 197°
2026-05-07 20:10 43.02544 39.77067 9302 ft 264 kts 174°
2026-05-07 20:11 43.00833 39.77839 9042 ft 256 kts 144°
2026-05-07 20:11 42.99657 39.79600 8789 ft 251 kts 116°
2026-05-07 20:11 42.99218 39.81876 8536 ft 250 kts 89°
2026-05-07 20:11 42.99584 39.84165 8279 ft 249 kts 62°
2026-05-07 20:12 43.00673 39.85982 8044 ft 249 kts 37°
2026-05-07 20:12 43.02213 39.87067 7806 ft 250 kts 20°
2026-05-07 20:12 43.03865 39.87816 7559 ft 251 kts 18°
2026-05-07 20:12 43.05531 39.88534 7314 ft 251 kts 18°
2026-05-07 20:13 43.07197 39.89264 7070 ft 252 kts 18°
2026-05-07 20:13 43.08870 39.89981 6824 ft 252 kts 13°
2026-05-07 20:13 43.10595 39.89918 6550 ft 250 kts 341°
2026-05-07 20:13 43.12059 39.88704 6301 ft 247 kts 314°
2026-05-07 20:14 43.12953 39.86735 6076 ft 246 kts 287°
2026-05-07 20:14 43.13102 39.84395 6033 ft 250 kts 260°
2026-05-07 20:14 43.12458 39.82224 5992 ft 247 kts 231°
2026-05-07 20:14 43.11172 39.80700 6001 ft 246 kts 207°
2026-05-07 20:15 43.09583 39.79831 6007 ft 247 kts 198°
2026-05-07 20:15 43.07940 39.79116 5992 ft 247 kts 197°
2026-05-07 20:15 43.06303 39.78408 5986 ft 246 kts 197°
2026-05-07 20:15 43.04676 39.77693 5988 ft 245 kts 197°
2026-05-07 20:16 43.03576 39.77230 5985 ft 244 kts 192°
2026-05-07 20:16 43.01913 39.77308 5995 ft 240 kts 159°
2026-05-07 20:16 43.00542 39.78556 6007 ft 239 kts 129°
2026-05-07 20:16 42.99795 39.80557 6010 ft 239 kts 101°
2026-05-07 20:17 42.99850 39.82802 6007 ft 240 kts 71°
2026-05-07 20:17 43.00719 39.84732 6004 ft 242 kts 42°
2026-05-07 20:17 43.02160 39.85909 6009 ft 244 kts 20°
2026-05-07 20:17 43.03780 39.86641 6002 ft 246 kts 18°
2026-05-07 20:18 43.05420 39.87357 6003 ft 248 kts 18°
2026-05-07 20:18 43.07063 39.88084 5992 ft 248 kts 19°
2026-05-07 20:18 43.08707 39.88794 5986 ft 248 kts 13°
2026-05-07 20:18 43.10401 39.88716 5996 ft 246 kts 340°
2026-05-07 20:19 43.11794 39.87414 5995 ft 245 kts 309°
2026-05-07 20:19 43.12521 39.85339 5997 ft 244 kts 279°
2026-05-07 20:19 43.12405 39.83049 5998 ft 244 kts 249°
2026-05-07 20:19 43.11465 39.81151 5998 ft 243 kts 219°
2026-05-07 20:20 43.09995 39.80029 6008 ft 244 kts 199°
2026-05-07 20:20 43.08377 39.79291 6005 ft 246 kts 197°
2026-05-07 20:20 43.06735 39.78586 6004 ft 248 kts 197°
2026-05-07 20:20 43.05081 39.77866 6000 ft 250 kts 197°
2026-05-07 20:21 43.03409 39.77171 5992 ft 250 kts 189°
2026-05-07 20:21 43.01709 39.77364 5997 ft 247 kts 155°
2026-05-07 20:21 43.00368 39.78758 5996 ft 243 kts 125°
2026-05-07 20:21 42.99725 39.80852 6000 ft 240 kts 96°
2026-05-07 20:22 42.99908 39.83095 5998 ft 239 kts 67°
2026-05-07 20:22 43.00868 39.84924 6000 ft 239 kts 39°
2026-05-07 20:22 43.02323 39.86013 6011 ft 241 kts 20°
2026-05-07 20:22 43.03919 39.86744 6002 ft 243 kts 18°
2026-05-07 20:23 43.05537 39.87443 6001 ft 245 kts 18°
2026-05-07 20:23 43.07162 39.88155 5998 ft 246 kts 18°
2026-05-07 20:23 43.08798 39.88846 5994 ft 247 kts 11°
2026-05-07 20:23 43.10486 39.88688 6000 ft 246 kts 338°
2026-05-07 20:24 43.11858 39.87328 6000 ft 247 kts 307°
2026-05-07 20:24 43.12556 39.85179 6001 ft 247 kts 277°
2026-05-07 20:24 43.12376 39.82873 5998 ft 246 kts 246°
2026-05-07 20:24 43.11367 39.81019 5992 ft 245 kts 216°
2026-05-07 20:25 43.09860 39.79956 6007 ft 245 kts 199°
2026-05-07 20:25 43.08237 39.79227 6002 ft 247 kts 197°
2026-05-07 20:25 43.06592 39.78523 6004 ft 248 kts 197°
2026-05-07 20:25 43.04943 39.77805 5994 ft 249 kts 197°
2026-05-07 20:26 43.03279 39.77140 5985 ft 249 kts 187°
2026-05-07 20:26 43.01600 39.77442 5997 ft 245 kts 153°
2026-05-07 20:26 43.00306 39.78900 5998 ft 243 kts 123°
2026-05-07 20:26 42.99718 39.80994 6000 ft 241 kts 95°
2026-05-07 20:27 42.99953 39.83234 6001 ft 241 kts 65°
2026-05-07 20:27 43.00969 39.85027 6004 ft 241 kts 37°
2026-05-07 20:27 43.02454 39.86064 6011 ft 242 kts 20°
2026-05-07 20:27 43.04066 39.86792 6002 ft 244 kts 18°
2026-05-07 20:28 43.05691 39.87493 5998 ft 245 kts 18°
2026-05-07 20:28 43.07320 39.88208 5998 ft 246 kts 18°
2026-05-07 20:28 43.08961 39.88869 5992 ft 247 kts
2026-05-07 20:28 43.10639 39.88575 5998 ft 246 kts 335°
2026-05-07 20:29 43.11954 39.87121 5998 ft 246 kts 304°
2026-05-07 20:29 43.12565 39.84962 5999 ft 246 kts 274°
2026-05-07 20:29 43.12308 39.82680 5996 ft 245 kts 244°
2026-05-07 20:29 43.11240 39.80893 5997 ft 245 kts 214°
2026-05-07 20:30 43.09714 39.79887 6007 ft 244 kts 198°
2026-05-07 20:30 43.08091 39.79167 6003 ft 246 kts 197°
2026-05-07 20:30 43.06451 39.78463 6000 ft 248 kts 197°
2026-05-07 20:30 43.04804 39.77744 5994 ft 249 kts 197°
2026-05-07 20:31 43.03139 39.77110 5990 ft 249 kts 185°
2026-05-07 20:31 43.01477 39.77519 5999 ft 244 kts 150°
2026-05-07 20:31 43.00232 39.79047 5999 ft 242 kts 121°
2026-05-07 20:31 42.99704 39.81200 6002 ft 241 kts 92°
2026-05-07 20:32 43.00013 39.83425 6003 ft 241 kts 63°
2026-05-07 20:32 43.01085 39.85153 6002 ft 242 kts 34°
2026-05-07 20:32 43.02608 39.86122 6007 ft 243 kts 18°
2026-05-07 20:32 43.04221 39.86829 6000 ft 244 kts 18°
2026-05-07 20:33 43.05846 39.87543 5995 ft 246 kts 18°
2026-05-07 20:33 43.07474 39.88267 5993 ft 246 kts 19°
2026-05-07 20:33 43.09121 39.88905 5985 ft 247 kts
2026-05-07 20:33 43.10782 39.88499 6002 ft 246 kts 332°
2026-05-07 20:34 43.12044 39.86955 5998 ft 246 kts 302°
2026-05-07 20:34 43.12578 39.84760 5999 ft 246 kts 272°
2026-05-07 20:34 43.12242 39.82494 5993 ft 245 kts 241°
2026-05-07 20:34 43.11109 39.80794 5991 ft 244 kts 211°
2026-05-07 20:35 43.09706 39.79493 5985 ft 246 kts 230°
2026-05-07 20:35 43.09045 39.77379 5874 ft 247 kts 266°
2026-05-07 20:35 43.09437 39.75102 5388 ft 252 kts 303°
2026-05-07 20:35 43.10690 39.73424 4821 ft 256 kts 329°
2026-05-07 20:36 43.12315 39.72594 4491 ft 251 kts 354°
2026-05-07 20:36 43.14023 39.72871 4272 ft 248 kts 21°
2026-05-07 20:36 43.15582 39.73860 4111 ft 249 kts 28°
2026-05-07 20:36 43.17123 39.74988 3929 ft 253 kts 29°
2026-05-07 20:37 43.18732 39.76076 3738 ft 254 kts 25°
2026-05-07 20:37 43.20332 39.77090 3552 ft 252 kts 27°
2026-05-07 20:37 43.21859 39.78171 3361 ft 241 kts 29°
2026-05-07 20:37 43.23276 39.79231 3171 ft 222 kts 30°
2026-05-07 20:38 43.24578 39.80217 3052 ft 205 kts 30°
2026-05-07 20:38 43.25812 39.81152 2939 ft 202 kts 30°
2026-05-07 20:38 43.27044 39.82083 2796 ft 200 kts 30°
2026-05-07 20:38 43.28226 39.82976 2654 ft 188 kts 30°
2026-05-07 20:39 43.29345 39.83821 2518 ft 180 kts 30°
2026-05-07 20:39 43.30431 39.84642 2392 ft 177 kts 30°
2026-05-07 20:39 43.31522 39.85466 2291 ft 181 kts 30°
2026-05-07 20:39 43.32627 39.86301 2177 ft 180 kts 30°
2026-05-07 20:40 43.33696 39.87107 2059 ft 171 kts 30°
2026-05-07 20:40 43.34724 39.87884 1908 ft 168 kts 30°
2026-05-07 20:40 43.35715 39.88631 1721 ft 158 kts 30°
2026-05-07 20:40 43.36656 39.89342 1511 ft 151 kts 30°
2026-05-07 20:41 43.37590 39.90049 1328 ft 153 kts 29°
2026-05-07 20:41 43.38514 39.90743 1115 ft 150 kts 29°
2026-05-07 20:41 43.39422 39.91427 941 ft 149 kts 29°
2026-05-07 20:41 43.40328 39.92116 733 ft 149 kts 29°
2026-05-07 20:42 43.41225 39.92791 567 ft 146 kts 28°
2026-05-07 20:42 43.42126 39.93469 383 ft 149 kts 29°
2026-05-07 20:42 43.43041 39.94166 173 ft 150 kts 28°
2026-05-07 20:42 43.43934 39.94840 72 ft 138 kts 28°
2026-05-07 20:43 43.44630 39.95360 85 ft 91 kts 29°
2026-05-07 20:43 43.45068 39.95691 90 ft 42 kts 28°
2026-05-07 20:43 43.45226 39.95809 93 ft 15 kts 28°
2026-05-07 20:43 43.45291 39.95828 95 ft 6 kts 316°
2026-05-07 20:44 43.45284 39.95773 92 ft 7 kts 241°
2026-05-07 20:44 43.45251 39.95697 92 ft 14 kts 239°
2026-05-07 20:44 43.45201 39.95585 91 ft 13 kts 235°
2026-05-07 20:44 43.45151 39.95484 93 ft 13 kts 236°
2026-05-07 20:45 43.45110 39.95400 90 ft 10 kts 238°
2026-05-07 20:45 43.45063 39.95271 88 ft 21 kts 245°
2026-05-07 20:45 43.45004 39.95102 84 ft 14 kts 238°
2026-05-07 20:45 43.44922 39.95046 79 ft 13 kts 210°
2026-05-07 20:46 43.44875 39.94938 72 ft 13 kts 245°
2026-05-07 20:46 43.44836 39.94823 65 ft 13 kts 245°
2026-05-07 20:46 43.44798 39.94710 67 ft 13 kts 245°
2026-05-07 20:46 43.44760 39.94600 72 ft 13 kts 244°
2026-05-07 20:47 43.44723 39.94492 72 ft 12 kts 245°
2026-05-07 20:47 43.44687 39.94388 70 ft 10 kts 244°
2026-05-07 20:47 43.44685 39.94382 64 ft 0 kts 244°
2026-05-07 20:48 43.44685 39.94381 64 ft 0 kts 244°
2026-05-07 20:48 43.44676 39.94354 71 ft 6 kts 245°
2026-05-07 20:48 43.44684 39.94307 71 ft 6 kts 332°
2026-05-07 20:49 43.44717 39.94284 66 ft 1 kts 335°
2026-05-07 20:49 43.44721 39.94281 73 ft 1 kts 335°
2026-05-07 20:49 43.44724 39.94280 73 ft 1 kts 335°
2026-05-07 20:49 43.44725 39.94279 73 ft 0 kts 335°
2026-05-07 20:51 43.44728 39.94277 73 ft 3 kts 335°
2026-05-07 20:51 43.44753 39.94261 71 ft 4 kts 334°
2026-05-07 20:51 43.44769 39.94250 73 ft 0 kts 334°